User: anonymous   Login
Location: Unspecified
(0.0000°N, 0.0000°E)
Time: 00:29:03
(UTC+00:00)
Language:

COSMO-SKYMED 1 - Orbit

View from above orbital plane
View from above orbital plane
View from above satellite
View from above satellite

Ground track
Ground track

The orbit data is extracted from the following two-line orbital elements,

1 31598U 07023A   18203.51140515 -.00000158  00000-0 -13241-4 0  9995
2 31598  97.8895  26.5870 0001627  89.3008 270.8393 14.82153007601747
Epoch (UTC): 22 July 2018 12:16:25
Eccentricity: 0.0001627
inclination: 97.8895°
perigee height: 621 km
apogee height: 623 km
right ascension of ascending node: 26.5870°
argument of perigee: 89.3008°
revolutions per day: 14.82153007
mean anomaly at epoch: 270.8393°
orbit number at epoch: 60174

The dashed part of the orbit path shows where the satellite is in the earth's shadow,  

DLR